Location: Saint Louis
(38.6272°N, 90.1978°W)
Time: 20:50:24
(UTC-06:00)

Hubble Space Telescope - Visible Passes

Search period start: 20 February 2017 00:00
Search period end: 02 March 2017 00:00
Orbit: 538 x 542 km, 28.5° (Epoch: 20 February)

Date Brightness Start Highest point End Pass type
(mag) Time Alt. Az. Time Alt. Az. Time Alt. Az.
24 Feb 3.5 20:06:41 10° SSW 20:06:47 10° SSW 20:06:47 10° SSW visible
25 Feb 3.2 19:56:24 10° SW 19:57:32 14° SSW 19:57:32 14° SSW visible
26 Feb 2.8 19:46:12 10° SW 19:48:15 18° SSW 19:48:15 18° SSW visible
27 Feb 2.6 19:36:03 10° SW 19:38:56 19° S 19:38:56 19° S visible
28 Feb 2.5 19:25:57 10° SW 19:28:59 20° S 19:29:36 19° SSE visible
01 Mar 2.6 19:15:54 10° SW 19:18:56 20° S 19:20:17 17° SSE visible
